Marule, Australia

9:09 AM AEST on October 23, 2017 (GMT +1000)
Marule

Weather History for 94387 - December, 2013

Change the Weather History Date:

Sunday, December 29, 2013

  Actual Average Record
Temperature  
Mean Temperature 80 °F -  
Max Temperature 89 °F - - ()
Min Temperature 71 °F - - ()
Cooling Degree Days 15    
Growing Degree Days 30 (Base 50)    
Moisture  
Dew Point 71 °F    
Average Humidity 70    
Maximum Humidity 94    
Minimum Humidity 47    
Precipitation  
Precipitation 0.00 in - - ()
Sea Level Pressure  
Sea Level Pressure 29.79 in    
Wind  
Wind Speed 10 mph ()    
Max Wind Speed 21 mph    
Max Gust Speed 24 mph    
Visibility 6.2 miles    
Events      
T = Trace of Precipitation, MM = Missing Value Source: Averaged Metar Reports

Daily Weather History Graph

Daily Weather History Graph

Search for Another Location

Airport or City:

Trip Planner

Search our weather history database for the weather conditions in past years. The results will help you decide how hot, cold, wet, or windy it might be!

Date:

Astronomy

Dec. 29, 2013 Rise Set
Actual Time 5:02 AM AEST 6:42 PM AEST
Civil Twilight 4:36 AM AEST 7:08 PM AEST
Nautical Twilight 4:05 AM AEST 7:39 PM AEST
Astronomical Twilight 3:33 AM AEST 8:11 PM AEST
Moon 1:43 AM AEST (12/29) 3:14 PM AEST (12/29)
Length of Visible Light 14h 31m
Length of Day
13h 40m
Waning Crescent, 16% of the Moon is Illuminated
Dec 29
Waning Crescent
Jan 1
New
Jan 8
First Quarter
Jan 16
Full
Jan 24
Last Quarter

Hourly Weather History & Observations

Time (AEST) Temp. Heat Index Dew Point Humidity Pressure Visibility Wind Dir Wind Speed Gust Speed Precip Events Conditions
12:00 AM 76 °F - 70 °F 76% 29.81 in - North 8.1 mph - -  
12:00 AM 77.0 °F - 69.8 °F 78% 29.80 in 6.2 mi North 8.1 mph - N/A   Scattered Clouds
1:00 AM 77.0 °F - 69.8 °F 78% 29.77 in 6.2 mi North 9.2 mph - N/A   Scattered Clouds
2:00 AM 77.0 °F - 71.6 °F 83% 29.77 in 6.2 mi NNW 6.9 mph - N/A   Mostly Cloudy
3:00 AM 74 °F - 69 °F 81% 29.78 in - NW 3.5 mph - -  
3:00 AM 73.4 °F - 69.8 °F 88% 29.77 in 6.2 mi NW 3.5 mph - N/A   Scattered Clouds
4:00 AM 73.4 °F - 69.8 °F 88% 29.77 in 6.2 mi NNW 3.5 mph - N/A   Unknown
5:00 AM 71.6 °F - 69.8 °F 94% 29.80 in 6.2 mi North 3.5 mph - N/A   Unknown
6:00 AM 76 °F - 71 °F 80% 29.84 in - NNW 4.6 mph - -  
6:00 AM 75.2 °F - 71.6 °F 89% 29.83 in 6.2 mi NNW 4.6 mph - N/A   Unknown
7:00 AM 80.6 °F 84.6 °F 71.6 °F 74% 29.86 in 6.2 mi NNW 9.2 mph - N/A   Unknown
8:00 AM 84.2 °F 89.6 °F 71.6 °F 66% 29.86 in 6.2 mi NNW 12.7 mph - N/A   Mostly Cloudy
9:00 AM 85 °F - 69 °F 51% 29.86 in - North 9.2 mph - -  
9:00 AM 84.2 °F 88.4 °F 69.8 °F 62% 29.86 in 6.2 mi North 9.2 mph 24.2 mph N/A   Mostly Cloudy
10:00 AM 86.0 °F 90.4 °F 69.8 °F 58% 29.83 in 6.2 mi North 11.5 mph - N/A   Scattered Clouds
11:00 AM 87.8 °F 93.8 °F 71.6 °F 58% 29.83 in 6.2 mi North 15.0 mph - N/A   Unknown
12:00 PM 89 °F - 72 °F 47% 29.81 in - North 15.0 mph - -  
12:00 PM 89.6 °F 96.2 °F 71.6 °F 55% 29.80 in 6.2 mi North 15.0 mph - N/A   Unknown
1:00 PM 89.6 °F 94.7 °F 69.8 °F 52% 29.77 in 6.2 mi North 16.1 mph - N/A   Unknown
2:00 PM 89.6 °F 96.2 °F 71.6 °F 55% 29.74 in 6.2 mi North 18.4 mph - N/A   Unknown
3:00 PM 87 °F - 71 °F 49% 29.73 in - North 20.7 mph - -  
3:00 PM 87.8 °F 93.8 °F 71.6 °F 58% 29.71 in 6.2 mi North 20.7 mph - N/A   Unknown
4:00 PM 86.0 °F 90.4 °F 69.8 °F 58% 29.71 in 6.2 mi North 19.6 mph - N/A   Unknown
5:00 PM 86.0 °F 90.4 °F 69.8 °F 58% 29.71 in 6.2 mi North 18.4 mph - N/A   Unknown
6:00 PM 82 °F - 72 °F 66% 29.72 in - North 20.7 mph - -  
6:00 PM 82.4 °F 87.2 °F 71.6 °F 70% 29.71 in 6.2 mi North 20.7 mph - N/A   Unknown
7:00 PM 80.6 °F 85.4 °F 73.4 °F 79% 29.74 in 6.2 mi North 17.3 mph - N/A   Unknown
8:00 PM 80.6 °F 85.4 °F 73.4 °F 79% 29.77 in 6.2 mi North 18.4 mph - N/A   Unknown
9:00 PM 80 °F - 73 °F 74% 29.79 in - North 17.3 mph - -  
9:00 PM 80.6 °F 85.4 °F 73.4 °F 79% 29.77 in 6.2 mi North 17.3 mph - N/A   Unknown
9:53 PM 78.8 °F - 73.4 °F 83% 29.86 in 6.2 mi WNW 13.8 mph - N/A   Unknown
10:00 PM 78.8 °F - 71.6 °F 78% 29.86 in 6.2 mi West 15.0 mph - N/A   Unknown
11:00 PM 78.8 °F - 69.8 °F 74% 29.83 in 6.2 mi NNW 9.2 mph - N/A   Unknown